Regional Weather Roundup
Issued by NWS

Home | Current Version | Previous Version | Text Only | Print | Product List | Glossary Off
Versions: 1 2 3 4 5 6 7 8 9 10 11 12 13 14 15 16 17 18 19 20 21 22 23 24 25 26 27 28 29 30 31 32 33 34 35 36 37 38 39 40 41 42 43 44 45 46 47 48 49 50

000
ASUS43 KOAX 180202
RWRNE

WEATHER ROUNDUP FOR NEBRASKA
NATIONAL WEATHER SERVICE OMAHA NE
900 PM CDT WED SEP 17 2014

NOTES: SATELLITE DATA IS BEING USED TO AUGMENT CLOUD COVER ABOVE
       12000 FEET.
       "FAIR" INDICATES FEW OR NO CLOUDS BELOW 12,000 FEET WITH NO
       SIGNIFICANT WEATHER AND/OR OBSTRUCTIONS TO VISIBILITY.

  * THESE STATIONS DO NOT REPORT WEATHER SUCH AS RAIN...SNOW OR FOG.

NEZ001>004-019>022-054>056-180300-
NEBRASKA PANHANDLE

CITY           SKY/WX    TMP DP  RH WIND       PRES   REMARKS
SCOTTSBLUFF    MOCLDY    70  49  47 CALM      29.95R
ALLIANCE       MOCLDY    68  51  54 E9        29.94R
CHADRON        PTCLDY    67  52  58 NE3       29.90R
KIMBALL        CLOUDY    71  43  36 CALM      30.01R
SIDNEY         CLOUDY    73  49  42 E6        29.99S
$$

NEZ057>060-069>072-079>082-180300-
SOUTHWEST NEBRASKA

CITY           SKY/WX    TMP DP  RH WIND       PRES   REMARKS
NORTH PLATTE   CLEAR     63  59  87 E6        29.93R
IMPERIAL       CLEAR     73  59  61 E12       29.93R
LEXINGTON      CLEAR     65  62  87 E7        29.93R
MCCOOK         PTCLDY    70  61  73 E8        29.92R
OGALLALA       CLEAR     71  61  70 E6        29.93R
$$

NEZ005>010-023>029-035>040-094-180300-
NORTH CENTRAL NEBRASKA

CITY           SKY/WX    TMP DP  RH WIND       PRES   REMARKS
VALENTINE      MOCLDY    68  55  63 E8        29.95R
AINSWORTH      MOCLDY    64  56  76 E8        29.96R
BROKEN BOW     PTCLDY    65  60  84 CALM      29.94R
O`NEILL        PTCLDY    67  60  78 E6        29.96R
ORD            CLEAR     66  61  84 E3        29.93R
THEDFORD       PTCLDY    69  57  66 E3        29.96R
$$

NEZ041-046>049-061>064-073>077-083>087-180300-
SOUTH CENTRAL NEBRASKA

CITY           SKY/WX    TMP DP  RH WIND       PRES   REMARKS
GRAND ISLAND   PTCLDY    65  62  90 E5        29.94R
AURORA         PTCLDY    65  62  92 E5        29.93R
HASTINGS       CLEAR     70  60  70 E7        29.93R
HEBRON         CLEAR     65  61  86 CALM      29.92R
HOLDREGE       CLEAR     65  60  84 CALM      29.93R
KEARNEY *      CLEAR     64  61  88 E7        29.94R
YORK           PTCLDY    66  63  88 E5        29.94R
$$

NEZ011>018-030>034-042>045-180300-
NORTHEAST NEBRASKA

CITY           SKY/WX    TMP DP  RH WIND       PRES   REMARKS
NORFOLK        MOCLDY    66  61  84 SE6       29.94R
ALBION         CLOUDY    69  60  74 SE5       29.95R
BLAIR          CLEAR     69  61  76 E5        29.94R
COLUMBUS *     CLOUDY    66  61  82 E5        29.95R
FREMONT        PTCLDY    68  63  82 CALM      29.94R
TEKAMAH        CLEAR     66  61  84 CALM      29.93R
WAYNE          CLEAR     59  57  94 N3        29.95R
$$

NEZ050>053-065>068-078-088>093-180300-
SOUTHEAST NEBRASKA

CITY           SKY/WX    TMP DP  RH WIND       PRES   REMARKS
LINCOLN        CLEAR     71  61  70 E5        29.93R
OMAHA EPPLEY   PTCLDY    67  60  78 CALM      29.93R
BEATRICE       CLEAR     68  62  80 CALM      29.93R
FALLS CITY     CLEAR     68  63  84 E5        29.92R
NEBRASKA CITY  CLEAR     69  58  68 SE3       29.93R
PLATTSMOUTH    CLEAR     69  60  72 SE3       29.93R
$$

NEZ044-045-051>053-067-180300-
OMAHA AREA

CITY           SKY/WX    TMP DP  RH WIND       PRES   REMARKS
OMAHA EPPLEY   PTCLDY    67  60  78 CALM      29.93R
BLAIR          CLEAR     69  61  76 E5        29.94R
FREMONT        PTCLDY    68  63  82 CALM      29.94R
MILLARD        CLEAR     67  64  89 CALM      29.92R
OFFUTT AFB     CLEAR     65  65 100 NE3       29.92R
PLATTSMOUTH    CLEAR     69  60  72 SE3       29.93R
WAHOO          FAIR      65  61  86 CALM      29.93R
$$


USA.gov is the U.S. government's official web portal to all federal, state and local government web resources and services.